Previsão horária em Alhimovo

Hoje, 22 Junho, Terça-feira

Tempo Temperatura Precipitação Vento Pressão Humidade
00:00 +21°C° 0 mm 2 m/s 758 mmHg 75%
01:00 +21°C° 0 mm 2 m/s 758 mmHg 73%
02:00 +20°C° 0 mm 2 m/s 758 mmHg 70%
03:00 +20°C° 0 mm 2 m/s 758 mmHg 72%
04:00 +21°C° 0 mm 2 m/s 757 mmHg 74%
05:00 +21°C° 0 mm 2 m/s 757 mmHg 76%
06:00 +24°C° 0 mm 3 m/s 757 mmHg 72%
07:00 +26°C° 0 mm 3 m/s 757 mmHg 68%
08:00 +28°C° 0 mm 4 m/s 757 mmHg 65%
09:00 +29°C° 0 mm 4 m/s 757 mmHg 58%
10:00 +32°C° 0 mm 5 m/s 757 mmHg 52%
11:00 +33°C° 0 mm 5 m/s 757 mmHg 46%
12:00 +33°C° 0 mm 5 m/s 757 mmHg 48%
13:00 +33°C° 0 mm 5 m/s 757 mmHg 49%
14:00 +33°C° 0 mm 4 m/s 757 mmHg 51%
15:00 +33°C° 0 mm 4 m/s 757 mmHg 52%
16:00 +33°C° 0 mm 4 m/s 757 mmHg 54%
17:00 +33°C° 0 mm 3 m/s 757 mmHg 55%
18:00 +30°C° 0 mm 2 m/s 756 mmHg 62%
19:00 +29°C° 0 mm 2 m/s 756 mmHg 68%
20:00 +28°C° 0 mm 1 m/s 756 mmHg 74%
21:00 +27°C° 0.2 mm 1 m/s 757 mmHg 78%
22:00 +25°C° 0.2 mm 2 m/s 757 mmHg 82%
23:00 +24°C° 0.2 mm 2 m/s 757 mmHg 86%

Amanhã, 23 Junho, Quarta-feira

Tempo Temperatura Precipitação Vento Pressão Humidade
00:00 +24°C° 0 mm 2 m/s 758 mmHg 88%
01:00 +23°C° 0 mm 2 m/s 758 mmHg 90%
02:00 +23°C° 0 mm 2 m/s 758 mmHg 92%
03:00 +23°C° 0 mm 2 m/s 758 mmHg 91%
04:00 +23°C° 0 mm 2 m/s 758 mmHg 91%
05:00 +23°C° 0 mm 2 m/s 758 mmHg 90%
06:00 +25°C° 0 mm 3 m/s 758 mmHg 82%
07:00 +27°C° 0 mm 3 m/s 758 mmHg 74%
08:00 +29°C° 0 mm 3 m/s 758 mmHg 66%
09:00 +30°C° 0 mm 4 m/s 758 mmHg 59%
10:00 +33°C° 0 mm 4 m/s 758 mmHg 51%
11:00 +34°C° 0 mm 5 m/s 758 mmHg 44%
12:00 +35°C° 0 mm 5 m/s 758 mmHg 40%
13:00 +35°C° 0 mm 5 m/s 758 mmHg 36%
14:00 +36°C° 0 mm 5 m/s 758 mmHg 32%
15:00 +36°C° 0 mm 4 m/s 758 mmHg 36%
16:00 +35°C° 0 mm 4 m/s 758 mmHg 39%
17:00 +35°C° 0 mm 4 m/s 758 mmHg 42%
18:00 +33°C° 0 mm 3 m/s 758 mmHg 51%
19:00 +29°C° 0 mm 3 m/s 758 mmHg 60%
20:00 +27°C° 0 mm 2 m/s 758 mmHg 70%
21:00 +26°C° 0 mm 2 m/s 758 mmHg 73%
22:00 +25°C° 0 mm 2 m/s 758 mmHg 76%
23:00 +24°C° 0 mm 2 m/s 759 mmHg 79%

Depois de amanhã, 24 Junho, Quinta-feira

Tempo Temperatura Precipitação Vento Pressão Humidade
00:00 +24°C° 0 mm 2 m/s 759 mmHg 83%
01:00 +23°C° 0 mm 1 m/s 759 mmHg 88%
02:00 +23°C° 0 mm 1 m/s 759 mmHg 92%
03:00 +23°C° 0.2 mm 1 m/s 759 mmHg 92%
04:00 +23°C° 0.2 mm 1 m/s 759 mmHg 92%
05:00 +23°C° 0.2 mm 1 m/s 759 mmHg 91%
06:00 +24°C° 0.2 mm 1 m/s 759 mmHg 87%
07:00 +25°C° 0.2 mm 1 m/s 759 mmHg 83%
08:00 +24°C° 0.2 mm 0 m/s 759 mmHg 79%
09:00 +27°C° 0.7 mm 1 m/s 759 mmHg 77%
10:00 +28°C° 0.7 mm 1 m/s 759 mmHg 75%
11:00 +29°C° 0.7 mm 1 m/s 759 mmHg 73%
12:00 +30°C° 0.5 mm 1 m/s 759 mmHg 66%
13:00 +31°C° 0.5 mm 1 m/s 759 mmHg 60%
14:00 +32°C° 0.5 mm 1 m/s 758 mmHg 54%
15:00 +32°C° 0.1 mm 1 m/s 758 mmHg 54%
16:00 +32°C° 0.1 mm 2 m/s 757 mmHg 53%
17:00 +32°C° 0.1 mm 2 m/s 757 mmHg 53%
18:00 +29°C° 3.2 mm 2 m/s 757 mmHg 66%
19:00 +26°C° 3.2 mm 3 m/s 757 mmHg 80%
20:00 +21°C° 3.2 mm 3 m/s 757 mmHg 93%
21:00 +21°C° 3.6 mm 3 m/s 758 mmHg 94%
22:00 +20°C° 3.6 mm 2 m/s 758 mmHg 94%
23:00 +20°C° 3.6 mm 2 m/s 758 mmHg 95%

25 Junho, Sexta-feira

Tempo Temperatura Precipitação Vento Pressão Humidade
00:00 +19°C° 0 mm 2 m/s 758 mmHg 95%
01:00 +20°C° 0 mm 1 m/s 758 mmHg 96%
02:00 +20°C° 0 mm 1 m/s 757 mmHg 96%
03:00 +20°C° 0 mm 1 m/s 757 mmHg 95%
04:00 +20°C° 0 mm 1 m/s 757 mmHg 95%
05:00 +21°C° 0 mm 1 m/s 757 mmHg 94%
06:00 +22°C° 0 mm 1 m/s 757 mmHg 88%
07:00 +23°C° 0 mm 1 m/s 757 mmHg 82%
08:00 +25°C° 0 mm 1 m/s 757 mmHg 76%
09:00 +27°C° 0 mm 1 m/s 757 mmHg 70%
10:00 +28°C° 0 mm 1 m/s 757 mmHg 64%
11:00 +30°C° 0 mm 1 m/s 757 mmHg 58%
12:00 +31°C° 0 mm 1 m/s 756 mmHg 56%
13:00 +31°C° 0 mm 1 m/s 756 mmHg 53%
14:00 +32°C° 0 mm 2 m/s 756 mmHg 51%
15:00 +32°C° 0 mm 1 m/s 756 mmHg 51%
16:00 +32°C° 0 mm 1 m/s 755 mmHg 51%
17:00 +32°C° 0 mm 1 m/s 755 mmHg 51%
18:00 +30°C° 0.3 mm 2 m/s 755 mmHg 61%
19:00 +28°C° 0.3 mm 2 m/s 755 mmHg 71%
20:00 +26°C° 0.3 mm 3 m/s 755 mmHg 81%
21:00 +25°C° 0.2 mm 2 m/s 755 mmHg 82%
22:00 +23°C° 0.2 mm 2 m/s 755 mmHg 84%
23:00 +22°C° 0.2 mm 1 m/s 754 mmHg 85%

26 Junho, Sábado

Tempo Temperatura Precipitação Vento Pressão Humidade
00:00 +22°C° 0.2 mm 1 m/s 754 mmHg 88%
01:00 +22°C° 0.2 mm 1 m/s 754 mmHg 90%
02:00 +22°C° 0.2 mm 1 m/s 754 mmHg 92%
03:00 +22°C° 0.1 mm 1 m/s 754 mmHg 93%
04:00 +22°C° 0.1 mm 1 m/s 754 mmHg 94%
05:00 +22°C° 0.1 mm 1 m/s 754 mmHg 94%
06:00 +23°C° 0.1 mm 2 m/s 754 mmHg 89%
07:00 +24°C° 0.1 mm 2 m/s 754 mmHg 83%
08:00 +25°C° 0.1 mm 2 m/s 754 mmHg 77%
09:00 +27°C° 0 mm 3 m/s 754 mmHg 71%
10:00 +28°C° 0 mm 3 m/s 754 mmHg 65%
11:00 +29°C° 0 mm 3 m/s 754 mmHg 58%
12:00 +30°C° 0 mm 3 m/s 754 mmHg 56%
13:00 +31°C° 0 mm 3 m/s 754 mmHg 53%
14:00 +31°C° 0 mm 3 m/s 754 mmHg 51%
15:00 +31°C° 0 mm 3 m/s 754 mmHg 52%
16:00 +31°C° 0 mm 3 m/s 754 mmHg 53%
17:00 +31°C° 0 mm 3 m/s 754 mmHg 54%
18:00 +29°C° 0.1 mm 2 m/s 754 mmHg 62%
19:00 +28°C° 0.1 mm 2 m/s 754 mmHg 70%
20:00 +26°C° 0.1 mm 1 m/s 754 mmHg 78%
21:00 +24°C° 0 mm 2 m/s 755 mmHg 82%
22:00 +23°C° 0 mm 2 m/s 755 mmHg 85%
23:00 +21°C° 0 mm 2 m/s 755 mmHg 89%

27 Junho, Domingo

Tempo Temperatura Precipitação Vento Pressão Humidade
00:00 +20°C° 0 mm 2 m/s 755 mmHg 90%
01:00 +19°C° 0 mm 2 m/s 756 mmHg 92%
02:00 +19°C° 0 mm 2 m/s 756 mmHg 94%
03:00 +19°C° 0 mm 2 m/s 756 mmHg 92%
04:00 +19°C° 0 mm 2 m/s 756 mmHg 91%
05:00 +20°C° 0 mm 1 m/s 756 mmHg 90%
06:00 +21°C° 0 mm 1 m/s 756 mmHg 83%
07:00 +23°C° 0 mm 1 m/s 757 mmHg 76%
08:00 +24°C° 0 mm 1 m/s 757 mmHg 69%
09:00 +26°C° 0 mm 1 m/s 757 mmHg 64%
10:00 +27°C° 0 mm 1 m/s 757 mmHg 60%
11:00 +28°C° 0 mm 2 m/s 757 mmHg 55%
12:00 +29°C° 0 mm 2 m/s 757 mmHg 52%
13:00 +29°C° 0 mm 2 m/s 757 mmHg 49%
14:00 +30°C° 0 mm 2 m/s 757 mmHg 47%
15:00 +30°C° 0 mm 2 m/s 756 mmHg 48%
16:00 +30°C° 0 mm 2 m/s 756 mmHg 49%
17:00 +30°C° 0 mm 2 m/s 756 mmHg 50%
18:00 +28°C° 0 mm 2 m/s 756 mmHg 58%
19:00 +27°C° 0 mm 2 m/s 756 mmHg 66%
20:00 +25°C° 0 mm 2 m/s 756 mmHg 73%
21:00 +24°C° 0.4 mm 1 m/s 756 mmHg 77%
22:00 +23°C° 0.4 mm 1 m/s 756 mmHg 81%
23:00 +22°C° 0.4 mm 1 m/s 756 mmHg 85%
Mostrar mais